星链-31498 (STARLINK-31498 )

导读 | 星芒AI

STARLINK-31498 是 SpaceX Starlink 卫星互联网项目中的一颗低轨卫星,属于 Starlink 群体部署计划的一部分。该卫星由 SpaceX 制造并发射,旨在为全球用户提供高速、低延迟的宽带互联网服务。它运行在约 550 公里的近地轨道上,采用可展开的太阳能电池板供电,并具备自动避障功能。Starlink 项目致力于构建覆盖全球的卫星网络,尤其服务于偏远和网络基础设施不足的地区。

基本信息
目录编号:
59189
目录名称:
STARLINK-31498
国际标识:
2024-045M
轨道中心:
EARTH
卫星名称:
星链-31498
卫星全名:
星链-31498 (STARLINK-31498 )
卫星状态:
在轨 (已飞行602 天)
发射日期:
2024-03-10 UTC
国别 :
美国 (US)
星等 :
--
轨道信息
数据来源 国际轨道数据
星历时间: 2025-11-01T20:05:02+0800
22小时前
查看轨道信息
半长轴: 6861.237km
偏心率: 0.0001648
轨道倾角: 43.000°
近地点辐角 268.490°
升交点赤经 96.754°
平近点角 91.576°
近地点: 481.971km
远地点: 484.233km
周期: 94.268分钟
每日圈数: 15.275632
详细信息
固有亮度:
5
最大亮度:
0.3
卫星平台:
Starlink v2.0 mini
覆盖范围:
全球
运营商:
太空探索技术公司
运营商所在国:
美国
制造商(研发单位):
太空探索技术公司
制造商所在国:
美国
使用方式:
暂无
卫星简介
星链(Starlink)计划是由太空探索技术公司(SpaceX)提出的一个巨型低轨卫星互联网星座项目,计划在2019年至2024年间在太空搭建由约1.2万颗卫星组成的“星链”网络,其中1584颗将部署在地球上空550千米处的近地轨道,并从2020年开始工作。该卫星仍在工作。
2D轨道图
3D轨道图
轨道高度分析图
轨道倾角分析图
轨道综合分析图
查看轨道综合分析图